Location: downtown San Diego
(32.7310°N, 117.1990°W)
Time: 06:56:26
(UTC-07:00)

Cosmos 1844 Rocket - Visible Passes

Search period start: 21 May 2019 00:00
Search period end: 31 May 2019 00:00
Orbit: 825 x 844 km, 71.0° (Epoch: 20 May)

Date Brightness Start Highest point End Pass type
(mag) Time Alt. Az. Time Alt. Az. Time Alt. Az.
21 May 4.6 00:35:03 23° NE 00:35:03 23° NE 00:37:07 10° NNE visible
21 May 4.7 02:16:41 18° NW 02:16:41 18° NW 02:19:42 10° NNW visible
22 May 4.7 00:17:59 21° NE 00:17:59 21° NE 00:19:51 10° NE visible
22 May 4.6 01:59:37 19° NW 01:59:37 19° NW 02:02:42 10° NNW visible
23 May 4.7 00:00:52 19° NE 00:00:52 19° NE 00:02:34 10° NE visible
23 May 4.6 01:42:30 21° NW 01:42:30 21° NW 01:45:41 10° N visible
23 May 4.7 23:43:43 18° NE 23:43:43 18° NE 23:45:15 10° NE visible
24 May 4.5 01:25:20 23° NW 01:25:20 23° NW 01:28:38 10° N visible
24 May 4.7 23:26:31 17° NE 23:26:31 17° NE 23:27:57 10° NE visible
25 May 4.4 01:08:09 25° NW 01:08:09 25° NW 01:11:34 10° N visible
25 May 4.7 23:09:17 16° NE 23:09:17 16° NE 23:10:37 10° NE visible
26 May 4.3 00:50:54 27° NW 00:50:54 27° NW 00:54:29 10° N visible
26 May 4.7 22:51:59 15° ENE 22:51:59 15° ENE 22:53:15 10° NE visible
27 May 4.2 00:33:36 30° NW 00:33:36 30° NW 00:37:23 10° N visible
27 May 4.7 22:34:38 15° ENE 22:34:38 15° ENE 22:35:52 10° NE visible
28 May 4.1 00:16:14 33° NW 00:16:14 33° NW 00:20:16 10° N visible
28 May 4.6 22:17:12 15° ENE 22:17:12 15° ENE 22:18:27 10° NE visible
28 May 3.9 23:58:48 38° NW 23:58:48 38° NW 00:03:09 10° N visible
29 May 4.6 21:59:41 14° ENE 21:59:41 14° ENE 22:01:00 10° ENE visible
29 May 3.6 23:41:17 43° NW 23:41:17 43° NW 23:46:01 10° N visible
30 May 4.5 21:42:04 14° ENE 21:42:04 14° ENE 21:43:31 10° ENE visible
30 May 3.3 23:23:39 50° WNW 23:23:39 50° WNW 23:28:52 10° N visible
